Regional Weather Roundup
Issued by NWS

Home | Current Version | Previous Version | Text Only | Print | Product List | Glossary Off
Versions: 1 2 3 4 5 6 7 8 9 10 11 12 13 14 15 16 17 18 19 20 21 22 23 24 25 26 27 28 29 30 31 32 33 34 35 36 37 38 39 40 41 42 43 44 45 46 47 48 49 50

592
ASUS45 KCYS 130710
RWRWY

WYOMING REGIONAL WEATHER ROUNDUP
NATIONAL WEATHER SERVICE CHEYENNE WY
1200 AM MST WED DEC 13 2017

NOTE:  "FAIR" INDICATES FEW OR NO CLOUDS BELOW 12,000 FEET
WITH NO SIGNIFICANT WEATHER AND/OR OBSTRUCTIONS TO VISIBILITY.

WYZ001-130800-
YELLOWSTONE NATIONAL PARK

CITY           SKY/WX    TMP DP  RH WIND       PRES   REMARKS
LK YELLOWSTONE   N/A     18  15  88 CALM      30.33F
W YELLOWSTONE  NOT AVBL

$$
WYZ002>013-054>058-071-098>099-130800-
NORTHERN WYOMING

CITY           SKY/WX    TMP DP  RH WIND       PRES   REMARKS
JACKSON        FAIR      18  13  80 NE5       30.33S WCI  11
CODY           FAIR      51   4  14 S3        30.17R
GREYBULL       FAIR      25  17  72 S6        30.13S WCI  18
WORLAND        FAIR      27  22  81 SW6       30.14S WCI  20
SHERIDAN       MOCLDY    44  12  27 NW15      30.14R
BUFFALO        FAIR      46   4  17 N24G37    30.10S
GILLETTE       FAIR      42   7  23 NW18      30.08R
HULETT         FAIR      45  18  33 NW12G22   30.03S
NEWCASTLE      FAIR      43  10  26 NW21G32   30.00R

$$
WYZ014>020-022>026-101>103-130800-
CENTRAL WYOMING

CITY           SKY/WX    TMP DP  RH WIND       PRES   REMARKS
BIG PINEY      FAIR      22   0  38 E6        30.28S WCI  14
PINEDALE       FAIR      19   5  53 CALM      30.28F
DUBOIS         FAIR      32   0  25 NW5       30.23S WCI  27
LANDER         FAIR      37  17  44 SW10      30.15R WCI  30
RIVERTON       FAIR      31  20  63 CALM      30.16R
CASPER         FAIR      35  19  52 W10       30.13R WCI  27
DOUGLAS        FAIR      33  20  58 NW7       30.09F WCI  27

$$
WYZ021-027>030-104>119-130800-
SOUTHERN WYOMING

CITY           SKY/WX    TMP DP  RH WIND       PRES   REMARKS
EVANSTON       FAIR      30  12  47 SW12      30.32F WCI  20
FORT BRIDGER   FAIR      36   2  24 W17       30.32F WCI  25
ROCK SPRINGS   FAIR      30   4  33 SW15      30.27F WCI  19
DIXON          FAIR      14   8  78 CALM      30.30F
RAWLINS        FAIR      39   7  26 W20G30    30.19S WCI  29
SARATOGA       FAIR      27  14  59 E9G17     30.21F WCI  17
LARAMIE        FAIR      37   4  25 W14       30.14F WCI  28
CHEYENNE       FAIR      44   5  20 W18       30.08S
TORRINGTON     FAIR      41  16  36 W5        30.03S
PINE BLUFFS    FAIR      39   5  24 NW18      30.07R WCI  30

$$




USA.gov is the U.S. government's official web portal to all federal, state and local government web resources and services.